Location: Ocean City
(38.3360°N, 75.0850°W)
Time: 12:12:40
(UTC-04:00)

ISS - Visible Passes

Search period start: 20 October 2019 00:00
Search period end: 30 October 2019 00:00
Orbit: 411 x 421 km, 51.6° (Epoch: 20 October)

Date Brightness Start Highest point End Pass type
(mag) Time Alt. Az. Time Alt. Az. Time Alt. Az.
23 Oct -1.4 06:11:59 10° S 06:14:43 23° SE 06:17:28 10° ENE visible
24 Oct -0.8 05:24:39 10° SSE 05:26:18 13° SE 05:27:56 10° E visible
25 Oct -3.6 06:11:17 14° SW 06:14:02 74° SE 06:17:24 10° NE visible
26 Oct -2.6 05:25:28 38° SE 05:25:29 38° SE 05:28:38 10° ENE visible
27 Oct -0.2 04:39:26 11° E 04:39:26 11° E 04:39:35 10° E visible
27 Oct -3.1 06:12:22 28° WNW 06:13:31 38° NNW 06:16:42 10° NE visible
28 Oct -2.3 05:26:09 32° NE 05:26:09 32° NE 05:28:10 10° NE visible
29 Oct -2.0 06:12:43 18° NW 06:13:10 19° NNW 06:15:39 10° NNE visible
